Regional Weather Roundup
Issued by NWS

Home | Current Version | Previous Version | Graphics & Text | Print | Product List | Glossary On
Versions: 1 2 3 4 5 6 7 8 9 10 11 12 13 14 15 16 17 18 19 20 21 22 23 24 25 26 27 28 29 30 31 32 33 34 35 36 37 38 39 40 41 42 43 44 45 46 47 48 49 50
000
ASUS45 KCYS 100410
RWRWY

WYOMING REGIONAL WEATHER ROUNDUP
NATIONAL WEATHER SERVICE CHEYENNE WY
1000 PM MDT WED JUL 09 2014

NOTE:  "FAIR" INDICATES FEW OR NO CLOUDS BELOW 12,000 FEET
WITH NO SIGNIFICANT WEATHER AND/OR OBSTRUCTIONS TO VISIBILITY.

WYZ001-100500-
YELLOWSTONE NATIONAL PARK

CITY           SKY/WX    TMP DP  RH WIND       PRES   REMARKS
LK YELLOWSTONE   N/A     62  45  53 VRB3G17   30.24R
W YELLOWSTONE  NOT AVBL

$$
WYZ002>013-054>058-071-098>099-100500-
NORTHERN WYOMING

CITY           SKY/WX    TMP DP  RH WIND       PRES   REMARKS
JACKSON        MOCLDY    70  43  37 CALM      30.08R
CODY           NOT AVBL
GREYBULL       CLOUDY    79  56  45 N10       29.83F
WORLAND        CLOUDY    83  49  30 N8        29.86R
SHERIDAN       CLOUDY    74  57  55 E3        29.89R
BUFFALO        CLOUDY    76  50  40 CALM      29.99R
GILLETTE       PTCLDY    74  55  51 SE13      29.94R
HULETT         FAIR      66  55  68 MISG      29.96
NEWCASTLE      FAIR      68  54  60 SE6       29.97

$$
WYZ014>020-022>026-101>103-100500-
CENTRAL WYOMING

CITY           SKY/WX    TMP DP  RH WIND       PRES   REMARKS
BIG PINEY      MOCLDY    70  48  45 S8        30.16R
PINEDALE       MOCLDY    64  46  52 SE5       30.16S
DUBOIS         FAIR      72  34  25 NW7       30.13R
LANDER         MOCLDY    82  38  20 W13       29.94R
RIVERTON       PTCLDY    84  34  16 NW16      29.94R
CASPER         CLEAR     76  56  49 E17       29.95R
DOUGLAS        PTCLDY    71  57  61 E9        29.99R

$$
WYZ021-027>030-104>119-100500-
SOUTHERN WYOMING

CITY           SKY/WX    TMP DP  RH WIND       PRES   REMARKS
EVANSTON       MOCLDY    64  46  52 SW8       30.20S
KEMMERER       CLOUDY    70  41  35 SW18G25   30.21R
FORT BRIDGER   MOCLDY    71  44  37 SW8       30.20F
ROCK SPRINGS   CLOUDY    75  40  28 SW10      30.14R
DIXON          FAIR      73  40  31 SW8G20    30.19R
RAWLINS        CLOUDY    74  39  28 SW20G30   30.13R
SARATOGA       FAIR      73  37  27 SW24G40   30.13R
LARAMIE        PTCLDY    66  49  54 S10       30.16R
CHEYENNE       CLEAR     72  42  34 S7        30.10R
TORRINGTON     CLEAR     73  61  65 E13       29.94R

$$


USA.gov is the U.S. government's official web portal to all federal, state and local government web resources and services.